Date String (YYYY-MM-DD hh:mm:ss) UTC,Instrument flags,Ambient pressure (hPa),Sample flow (lpm),Bypass flow (lpm),Sample temperature (°C),Ambient temperature (°C),ASC tube jacket temperature (°C),LED temperature (°C),Box temperature (°C),Sample RH (%),Span deviation,Mass concentration (μg/m³),Mass concentration (μg/m³),Mass concentration (μg/m³)
DateTimeUTC,F1_M11,P_M11,Q1_M11,Q2_M11,T1_M11,T2_M11,T3_M11,T4_M11,T5_M11,U1_M11,ZSPAN_M11,X0_M11,X2_M11,X1_M11
2022-05-04 08:00:00,,0822.1,5.01,0.00,25.8,25.0,00.0,34.8,27.7,23.4,0000.0,0003.27,0003.06,0002.84
2022-05-04 08:01:00,,0822.1,4.99,0.00,25.8,25.0,00.0,34.8,27.7,23.4,0000.0,0003.09,0002.94,0002.76
2022-05-04 08:02:00,,0822.1,5.00,0.00,25.8,25.0,00.0,34.8,27.7,23.5,0000.0,0003.07,0002.91,0002.72
2022-05-04 08:03:00,,0822.1,5.01,0.00,25.8,25.0,00.0,34.8,27.7,23.5,0000.0,0002.92,0002.86,0002.69
2022-05-04 08:04:00,,0822.1,5.00,0.00,25.8,25.0,00.0,34.8,27.7,23.5,0000.0,0002.88,0002.83,0002.64
2022-05-04 08:05:00,,0822.0,5.01,0.00,25.8,25.0,00.0,34.8,27.7,23.5,0000.0,0002.80,0002.76,0002.59
2022-05-04 08:06:00,,0822.0,4.99,0.00,25.8,25.0,00.0,34.8,27.7,23.6,0000.0,0002.76,0002.74,0002.57
2022-05-04 08:07:00,,0821.9,5.00,0.00,25.8,25.0,00.0,34.8,27.7,23.5,0000.0,0002.71,0002.71,0002.55
2022-05-04 08:08:00,,0821.8,5.00,0.00,25.8,25.0,00.0,34.8,27.7,23.5,0000.0,0002.74,0002.72,0002.54
2022-05-04 08:09:00,,0822.0,4.99,0.00,25.8,25.0,00.0,34.7,27.7,23.5,0000.0,0002.77,0002.70,0002.52
2022-05-04 08:10:00,,0821.8,5.01,0.00,25.8,25.0,00.0,34.7,27.7,23.5,0000.0,0002.91,0002.74,0002.52
2022-05-04 08:11:00,,0821.8,4.98,0.00,25.8,25.0,00.0,34.7,27.6,23.5,0000.0,0002.96,0002.72,0002.48
2022-05-04 08:12:00,,0821.8,5.01,0.00,25.8,25.0,00.0,34.7,27.6,23.4,0000.0,0002.92,0002.66,0002.41
2022-05-04 08:13:00,,0821.8,4.98,0.00,25.8,25.0,00.0,34.7,27.6,23.4,0000.0,0002.88,0002.58,0002.32
2022-05-04 08:14:00,,0821.8,5.01,0.00,25.8,25.0,00.0,34.7,27.6,23.4,0000.0,0002.92,0002.53,0002.24
2022-05-04 08:15:00,,0821.9,4.99,0.00,25.8,25.0,00.0,34.7,27.6,23.3,0000.0,0002.86,0002.44,0002.15
2022-05-04 08:16:00,,0821.9,5.01,0.00,25.8,25.0,00.0,34.7,27.6,23.3,0000.0,0002.78,0002.36,0002.07
2022-05-04 08:17:00,,0821.8,5.00,0.00,25.8,25.0,00.0,34.7,27.7,23.3,0000.0,0002.85,0002.27,0001.99
2022-05-04 08:18:00,,0821.8,5.01,0.00,25.8,25.0,00.0,34.7,27.6,23.4,0000.0,0003.04,0002.22,0001.93
2022-05-04 08:19:00,,0821.8,5.00,0.00,25.8,25.0,00.0,34.7,27.6,23.4,0000.0,0002.89,0002.12,0001.86
2022-05-04 08:20:00,,0821.8,5.00,0.00,25.8,25.0,00.0,34.7,27.7,23.3,0000.0,0002.84,0002.07,0001.80
2022-05-04 08:21:00,,0821.8,5.01,0.00,25.8,25.0,00.0,34.7,27.7,23.3,0000.0,0002.67,0001.97,0001.72
2022-05-04 08:22:00,,0821.8,4.99,0.00,25.8,25.0,00.0,34.7,27.7,23.3,0000.0,0002.56,0001.88,0001.65
2022-05-04 08:23:00,,0821.8,5.01,0.00,25.8,25.0,00.0,34.7,27.7,23.3,0000.0,0002.53,0001.84,0001.61
2022-05-04 08:24:00,,0821.9,4.98,0.00,25.8,25.0,00.0,34.7,27.7,23.2,0000.0,0002.67,0001.82,0001.56
2022-05-04 08:25:00,,0821.9,5.00,0.00,25.8,25.0,00.0,34.7,27.7,23.2,0000.0,0002.55,0001.74,0001.52
2022-05-04 08:26:00,,0821.8,5.01,0.00,25.8,25.0,00.0,34.7,27.7,23.1,0000.0,0002.49,0001.70,0001.48
2022-05-04 08:27:00,,0821.8,5.00,0.00,25.8,25.0,00.0,34.7,27.7,23.1,0000.0,0002.56,0001.68,0001.45
2022-05-04 08:28:00,,0821.8,4.99,0.00,25.8,25.0,00.0,34.8,27.7,23.1,0000.0,0002.46,0001.66,0001.43
2022-05-04 08:29:00,,0821.8,5.01,0.00,25.8,25.0,00.0,34.8,27.7,23.2,0000.0,0002.27,0001.65,0001.43
2022-05-04 08:30:00,,0821.8,4.99,0.00,25.8,25.0,00.0,34.8,27.7,24.2,0000.0,0002.42,0001.73,0001.46
2022-05-04 08:31:00,,0821.8,5.00,0.00,25.8,25.0,00.0,34.8,27.7,25.1,0000.0,0002.64,0001.85,0001.58
2022-05-04 08:32:00,,0821.8,5.00,0.00,25.8,25.0,00.0,34.8,27.7,24.1,0000.0,0002.94,0002.18,0001.91
2022-05-04 08:33:00,,0821.9,5.01,0.00,25.8,25.0,00.0,34.8,27.7,23.8,0000.0,0003.47,0002.72,0002.41
2022-05-04 08:34:00,,0821.8,5.00,0.00,25.8,25.0,00.0,34.8,27.7,23.8,0000.0,0004.23,0003.26,0003.03
2022-05-04 08:35:00,,0821.8,5.00,0.00,25.8,25.0,00.0,34.8,27.7,23.8,0000.0,0004.80,0003.65,0003.45
2022-05-04 08:36:00,,0821.8,5.00,0.00,25.8,25.0,00.0,34.8,27.7,23.9,0000.0,0005.58,0004.10,0003.87
2022-05-04 08:37:00,,0821.8,5.00,0.00,25.8,25.0,00.0,34.8,27.7,23.9,0000.0,0006.54,0004.60,0004.35
2022-05-04 08:38:00,,0821.8,4.99,0.00,25.8,25.0,00.0,34.8,27.7,23.9,-000.1,0007.37,0005.10,0004.83
2022-05-04 08:39:00,,0821.8,5.01,0.00,25.8,25.0,00.0,34.8,27.7,24.0,-001.9,0007.92,0005.64,0005.32
2022-05-04 08:40:00,,0821.8,5.00,0.00,25.8,25.0,00.0,34.8,27.7,24.0,-001.9,0008.43,0006.14,0005.79
2022-05-04 08:41:00,,0821.8,4.99,0.00,25.8,25.0,00.0,34.8,27.7,24.0,-002.0,0008.89,0006.65,0006.30
2022-05-04 08:42:00,,0821.8,5.00,0.00,25.9,25.0,00.0,34.8,27.7,24.0,-002.1,0009.23,0007.12,0006.78
2022-05-04 08:43:00,,0821.8,4.99,0.00,25.9,25.0,00.0,34.8,27.7,24.0,-002.5,0009.66,0007.54,0007.18
2022-05-04 08:44:00,,0821.9,5.02,0.00,25.9,25.0,00.0,34.8,27.7,24.1,-002.8,0009.97,0007.84,0007.49
2022-05-04 08:45:00,,0822.1,4.99,0.00,25.9,25.0,00.0,34.8,27.7,24.1,-002.8,0010.07,0008.05,0007.70
2022-05-04 08:46:00,,0821.9,5.00,0.00,25.9,25.0,00.0,34.8,27.7,24.1,-002.8,0010.19,0008.20,0007.87
2022-05-04 08:47:00,,0821.8,5.00,0.00,25.9,25.0,00.0,34.8,27.7,24.1,-003.0,0010.32,0008.36,0008.02
2022-05-04 08:48:00,,0821.9,4.99,0.00,25.9,25.0,00.0,34.8,27.7,24.1,-003.1,0010.37,0008.45,0008.12
2022-05-04 08:49:00,,0822.0,5.01,0.00,25.9,25.0,00.0,34.8,27.7,24.1,-003.1,0010.41,0008.57,0008.23
2022-05-04 08:50:00,,0822.0,4.99,0.00,25.9,25.0,00.0,34.8,27.7,24.1,-003.2,0010.38,0008.61,0008.31
2022-05-04 08:51:00,,0821.9,5.01,0.00,25.9,25.0,00.0,34.8,27.7,24.1,-003.1,0010.44,0008.68,0008.37
2022-05-04 08:52:00,,0821.9,4.99,0.00,25.9,25.0,00.0,34.8,27.7,24.1,-002.9,0010.48,0008.69,0008.36
2022-05-04 08:53:00,,0821.8,5.01,0.00,25.9,25.0,00.0,34.8,27.7,24.0,-003.0,0010.53,0008.68,0008.34
2022-05-04 08:54:00,,0821.9,4.99,0.00,25.9,25.0,00.0,34.8,27.7,24.0,-002.9,0010.54,0008.65,0008.30
2022-05-04 08:55:00,,0821.9,5.00,0.00,25.9,25.0,00.0,34.8,27.7,24.0,-002.6,0010.36,0008.57,0008.24
2022-05-04 08:56:00,,0821.9,5.00,0.00,25.9,25.0,00.0,34.8,27.7,24.0,-002.5,0010.27,0008.51,0008.19
2022-05-04 08:57:00,,0821.9,5.00,0.00,25.9,25.0,00.0,34.8,27.7,23.9,-002.3,0010.18,0008.42,0008.10
2022-05-04 08:58:00,,0821.9,5.01,0.00,25.9,25.0,00.0,34.8,27.7,23.9,-002.2,0010.09,0008.34,0008.02
2022-05-04 08:59:00,,0821.9,4.99,0.00,25.9,25.0,00.0,34.8,27.7,23.9,-002.1,0009.91,0008.21,0007.93
